Location: Hohenfelde
(53.8441°N, 9.6220°E)
Time: 12:02:39
(UTC+00:00)

H-2A R/B - Pass Details

Date: 14 July 2020
Orbit: 577 x 656 km, 98.5° (Epoch: 10 August)

Event Time Altitude Azimuth Distance (km) Brightness Sun altitude
Rises 02:05:17 0° 150° (SSE) 2,921 5.3 -7.2°
Reaches altitude 10° 02:07:32 10° 146° (SE) 2,005 4.5 -7.0°
Maximum altitude 02:11:47 56° 69° (ENE) 744 2.9 -6.7°
Drops below altitude 10° 02:15:58 10° 351° (N) 1,971 5.3 -6.3°
Sets 02:18:09 0° 348° (NNW) 2,867 6.1 -6.1°
